Regional Weather Roundup
Issued by NWS

Home | Current Version | Previous Version | Text Only | Print | Product List | Glossary Off
Versions: 1 2 3 4 5 6 7 8 9 10 11 12 13 14 15 16 17 18 19 20 21 22 23 24 25 26 27 28 29 30 31 32 33 34 35 36 37 38 39 40 41 42 43 44 45 46 47 48 49 50

000
ASUS43 KDMX 260507
RWRIA

WEATHER ROUNDUP FOR IOWA
NATIONAL WEATHER SERVICE DES MOINES IA
1100 PM CST SUN JAN 25 2015

NOTE: "FAIR" INDICATES FEW OR NO CLOUDS BELOW 12,000 FEET WITH NO
SIGNIFICANT WEATHER AND/OR OBSTRUCTIONS TO VISIBILITY.

* - THESE STATIONS ARE NOT NWS STATIONS...THUS NOT UNDER NWS
QUALITY CONTROL.  THEY ALSO DO NOT REPORT WEATHER SUCH
AS PRECIPITATION OR FOG.

IAZ001>003-012>014-020>022-031>034-043>046-260600-
   NORTHWEST IOWA

CITY           SKY/WX    TMP DP  RH WIND       PRES   REMARKS
CARROLL *      CLOUDY    30  28  93 SE5       30.04F WCI  25
CHEROKEE *     CLOUDY    32  32 100 S6        30.02S WCI  26
DENISON *      CLOUDY    32  32 100 S3        30.02S
LE MARS *      CLEAR     32  30  93 MISG      30.02S
ORANGE CITY *  PTCLDY    34  30  86 CALM      30.00S
SHELDON *      CLOUDY    32  32 100 SW6       29.98F WCI  26
SIOUX CITY     CLOUDY    32  30  92 S3        30.04S
SPENCER        CLOUDY    33  30  88 SW5       30.01S WCI  29
STORM LAKE *   CLOUDY    30  30 100 S8        30.02S FOG     WCI  23
$$

IAZ055>058-069>071-079>083-090>094-260600-
   SOUTHWEST IOWA

CITY           SKY/WX    TMP DP  RH WIND       PRES   REMARKS
ATLANTIC *     CLOUDY    32  30  93 S3        30.05F
AUDUBON *      MOCLDY    30  27  86 S3        30.05F
CLARINDA *     CLOUDY    28  28 100 CALM      30.11S
COUNCIL BLFS * PTCLDY    30  30 100 SE7       30.05F WCI  23
CRESTON *      CLOUDY    30  28  93 CALM      30.07R
HARLAN  *      CLOUDY    32  32 100 S5        30.08F WCI  27
LAMONI         CLOUDY    31  25  78 N5        30.07F WCI  26
RED OAK *      CLOUDY    30  28  93 CALM      30.08F
SHENANDOAH *   CLOUDY    30  28  93 CALM      30.09F
$$

IAZ047>049-059>061-072>074-084-260600-
   CENTRAL IOWA

CITY           SKY/WX    TMP DP  RH WIND       PRES   REMARKS
AMES           CLOUDY    30  23  75 W6        30.06F WCI  24
ANKENY *       CLOUDY    32  23  69 NW7       30.07F WCI  26
CHARITON *     CLOUDY    32  28  86 NW5       30.08R WCI  27
DES MOINES     CLOUDY    32  23  69 NW6       30.07F WCI  26
GRINNELL*      CLOUDY    30  27  86 NW6       30.05F WCI  24
KNOXVILLE *    CLOUDY    30  27  86 NW9       30.06R WCI  22
MARSHALLTOWN   CLOUDY    29  26  89 SW3       30.04S
PELLA *        CLOUDY    31  26  82 NW6       30.08S WCI  25
PERRY *          N/A     32  28  86 CALM      30.05F
$$

IAZ004>006-015-016-023>025-035-036-260600-
   NORTH CENTRAL IOWA

CITY           SKY/WX    TMP DP  RH WIND       PRES   REMARKS
ALGONA *       CLOUDY    28  27  93 S6        30.01F WCI  22
CLARION *      CLOUDY    28  25  86 CALM      30.02F
ESTHERVILLE    CLOUDY    28  25  88 S10       29.99F WCI  19
FORT DODGE *   CLOUDY    28  23  80 CALM      30.03F
MASON CITY     CLOUDY    25  21  85 S3        30.03F
FOREST CITY *  CLOUDY    28  23  80 CALM      30.01F
IOWA FALLS *   CLOUDY    28  23  80 W9        30.05S WCI  20
$$

IAZ007>011-017>019-026>030-037>042-050>054-066-260600-
   NORTHEAST IOWA

CITY           SKY/WX    TMP DP  RH WIND       PRES   REMARKS
CEDAR RAPIDS   CLOUDY    20  15  81 SE3       30.03F
CHARLES CITY * CLOUDY    27  23  86 CALM      30.03S
CLINTON *      PTCLDY    16  10  79 N5        30.07F WCI   9
DECORAH *      CLOUDY    23  16  74 SE6       30.01F WCI  16
DUBUQUE        CLOUDY    17  10  74 NE3       30.04S
MONTICELLO *   CLEAR     18  16  93 CALM      30.04F
OELWEIN *      CLOUDY    23  18  80 S6        30.04R WCI  16
WATERLOO       CLOUDY    28  23  81 W3        30.05R
$$

IAZ064-065-067-068-078-260600-
   EAST CENTRAL IOWA

CITY           SKY/WX    TMP DP  RH WIND       PRES   REMARKS
DAVENPORT      PTCLDY    14   9  80 N7        30.06S WCI   4
IOWA CITY      CLOUDY    21  15  78 CALM      30.08F
MT. PLEASANT * CLOUDY    23  19  86 N7        30.09R WCI  15
MUSCATINE *    CLEAR     21  16  79 N7        30.09R WCI  13
QUAD CITIES    PTCLDY    20  13  74 N6        30.05F WCI  12
$$

IAZ062-063-075>077-085>089-095>099-260600-
   SOUTHEAST IOWA

CITY           SKY/WX    TMP DP  RH WIND       PRES   REMARKS
BURLINGTON     PTCLDY    24  19  81 N8        30.06S WCI  15
FAIRFIELD *    CLOUDY    27  21  80 NE6       30.08R WCI  20
FORT MADISON * CLOUDY    27  21  80 N6        30.08R WCI  20
KEOKUK *       CLOUDY    27  23  86 N5        30.07R WCI  21
OSKALOOSA *    CLOUDY    28  25  86 CALM      30.06F
CENTERVILLE *  CLOUDY    30  30 100 W6        30.08S WCI  24
OTTUMWA        CLOUDY    29  25  85 N3        30.07S
WASHINGTON *   PTCLDY    23  21  93 NE8       30.07S WCI  14
$$

ABBREVIATIONS USED IN REMARKS
   TC - TEMPERATURES IN CELSIUS
  WCI - WIND CHILL INDEX
   HX - HEAT INDEX
  VSB - VISIBILITY
$$




USA.gov is the U.S. government's official web portal to all federal, state and local government web resources and services.